Weather Roundup
Issued by NWS Springfield, MO

Home | Current Version | Previous Version | Text Only | Print | Product List | Glossary On
Versions: 1 2 3 4 5 6 7 8 9 10 11 12 13 14 15 16 17 18 19 20 21 22 23 24 25 26 27 28 29 30 31 32 33 34 35 36 37 38 39 40 41 42 43 44 45 46 47 48 49 50
000
NZUS99 KSGF 270107
HRRSGF

HOURLY WEATHER
NATIONAL WEATHER SERVICE SPRINGFIELD MO
700 PM CST FRI DEC 26 2014

......SGF CWA......

CITY           SKY/WX    TMP DP  RH WIND       PRES   REMARKS
SPRINGFIELD    CLOUDY    50  47  89 S15       29.97R
JOPLIN         CLOUDY    52  51  97 S5        29.96R FOG
WEST PLAINS    CLOUDY    48  38  68 SE12      30.04S
ROLLA          CLOUDY    51  43  74 S13       29.98S
OSAGE BEACH    CLOUDY    52  45  76 S9G17     29.98R
BRANSON        LGT RAIN  48  46  93 SE9       30.01R

......SURROUNDING SGF CWA......

CITY           SKY/WX    TMP DP  RH WIND       PRES   REMARKS
CHANUTE        LGT RAIN  44  40  85 NW8       29.96R
PARSONS        CLOUDY    48  44  86 N8        29.96R
COFFEYVILLE    CLOUDY    53  50  89 S9        29.94R
EMPORIA        CLOUDY    37  33  85 N9        29.95F WCI  30
GROVE OK       LGT RAIN  52  52 100 S5        29.98R
ROGERS AR      LGT RAIN  51  50  96 S9        29.99R
SILOAM SPRINGS CLOUDY    52  45  76 S8        29.99R
HARRISON AR    LGT RAIN  48  48 100 SE13      30.01R FOG
NEAR YELLVILLE CLOUDY    48  43  81 S3        30.03R

......KANSAS AND MISSOURI......

CITY           SKY/WX    TMP DP  RH WIND       PRES   REMARKS
KANSAS CTY INT DRIZZLE   39  34  82 NW6       29.96R WCI  35
DOWNTOWN KC    CLOUDY    43  35  73 N6        29.96R
COLUMBIA       CLOUDY    54  46  74 S12       29.96S
SEDALIA        CLOUDY    54  46  74 S9        29.94S
ST JOSEPH      CLOUDY    37  33  85 NW9       29.98R WCI  30
ST LOUIS       DRIZZLE   55  42  61 S13       30.03R
SPIRIT OF STL  CLOUDY    54  44  69 VRB6      30.02R
KIRKSVILLE     LGT RAIN  48  44  86 CALM      29.94S
WICHITA        CLOUDY    35  31  85 NW10      30.00R WCI  27
TOPEKA         CLOUDY    39  34  82 N6        29.99S WCI  35
OLATHE         CLOUDY    42  35  76 N7        29.94R

......TENNESSEE......

CITY           SKY/WX    TMP DP  RH WIND       PRES   REMARKS
MEMPHIS        MOCLDY    50  41  71 S13       30.15R
NASHVILLE      MOCLDY    46  38  73 SE5       30.22F

......ARKANSAS.......

CITY           SKY/WX    TMP DP  RH WIND       PRES   REMARKS
FAYETTEVILLE   CLOUDY    50  49  96 S9        29.99R
FT SMITH       CLOUDY    50  48  93 NE7       30.00R
LITTLE ROCK    LGT RAIN  53  48  83 SE8       30.09R FOG

......OKLAHOMA.......

CITY           SKY/WX    TMP DP  RH WIND       PRES   REMARKS
TULSA          CLOUDY    55  52  89 S8        29.94R
PONCA CITY     MOCLDY    41  34  76 NW8       29.99R
MCALESTER      CLOUDY    56  52  86 SE8       29.96R
OKLAHOMA CITY  MOCLDY    45  33  63 N17       29.98R

......IOWA............

CITY           SKY/WX    TMP DP  RH WIND       PRES   REMARKS
DES MOINES     CLOUDY    35  31  85 N6        29.98S WCI  30
QUAD CITIES    CLOUDY    42  37  82 CALM      29.97S

......ILLINOIS........

CITY           SKY/WX    TMP DP  RH WIND       PRES   REMARKS
QUINCY         CLOUDY    49  42  77 SE6       29.96R
CHICAGO        CLOUDY    46  39  76 S5        30.01S



USA.gov is the U.S. government's official web portal to all federal, state and local government web resources and services.